267  
NZUS01 KABQ 022310  
RWRABQ  
NEW MEXICO REGIONAL WEATHER ROUNDUP  
NATIONAL WEATHER SERVICE ALBUQUERQUE NM  
500 PM MDT THU JUL 02 2020  
 
-----NORTHERN NEW MEXICO AND NEARBY AREAS-----  
 
 
CITY SKY/WX TMP DP RH WIND PRES REMARKS
 
ALBUQUERQUE FAIR 92 32 12 SW9 30.06F  
BELEN FAIR 93 30 10 S12 30.06F  
SOCORRO FAIR 92 39 15 S15G22 30.04F  
 
CITY SKY/WX TMP DP RH WIND PRES REMARKS
 
SANTA FE MOSUNNY 89 25 10 VRB7 30.12F  
LOS ALAMOS MOSUNNY 84 25 11 S14G20 30.20F  
TAOS MOSUNNY 86 31 13 SE12G18 30.20F  
FARMINGTON SUNNY 91 32 12 W12 30.10F  
GRANTS PTSUNNY 83 29 13 CALM 30.19F  
GALLUP MOSUNNY 87 33 14 NW9 30.18F  
FLAGSTAFF MOSUNNY 76 42 29 SW9G23 30.25F  
DURANGO MOSUNNY 85 30 13 W9G20 30.20F  
 
CITY SKY/WX TMP DP RH WIND PRES REMARKS
 
ALAMOSA MOSUNNY 84 26 12 S12G20 30.22F  
DENVER MOSUNNY 93 50 23 E17G23 30.02F  
CLAYTON SUNNY 92 37 14 S23G35 30.05F  
RATON MOSUNNY 87 32 14 SW14G21 30.13S  
LAS VEGAS CLOUDY 83 36 18 S18G28 30.20R  
CLINES CORNERS MOSUNNY 81 35 19 S17G26 30.22F  
SANTA ROSA FAIR 88 42 20 S13G23 30.05S  
TUCUMCARI MOSUNNY 97 47 18 S22G28 29.98F  
CLOVIS (AFB) PTSUNNY 92 45 19 SE7 30.05F  
CLOVIS PTSUNNY 90 46 21 VRB3 30.04F  
AMARILLO PTSUNNY 80 58 46 E22 30.02F  
 
-----SOUTHERN NEW MEXICO AND NEARBY AREAS-----  
 
 
CITY SKY/WX TMP DP RH WIND PRES REMARKS
 
T OR C MOSUNNY 90 47 22 CALM 30.03F  
TUCSON PTSUNNY 90 56 31 NW3 30.00S  
EL PASO MOSUNNY 98 48 18 NW9 29.98F  
LAS CRUCES MOSUNNY 95 38 14 SW9G20 30.03S  
 
CITY SKY/WX TMP DP RH WIND PRES REMARKS
 
ALAMOGORDO MOSUNNY 96 47 18 SW9 29.98F  
RUIDOSO PTSUNNY 81 43 26 CALM 30.23F  
ROSWELL MOSUNNY 99 47 17 S9G17 29.93F HX 95  
CARLSBAD SUNNY 97 49 19 S10G17 29.92F  
HOBBS MOSUNNY 97 45 16 SW6 29.98S  
 
CLICK HERE TO GO TO PREVIOUS BULLETINS.

The Nexlab NM Page Main Text Page